Расковой

Россия / Магаданская область     62°09′18″N   146°30′07″E
темп.,
°C
ветер,
м/с
пор.,
м/с
влажн.,
%
обл.,
%
осадки,
мм/ч
давл.,
гПа
погр.,
м
26 июля, пн
пн2623:00+10ююз4692100 0.6 1000268
02:00+10ю3595100 0.2 999240
05:00+10ююз2395100 1.1 999144
08:00+10ююз1194100 0.3 99992
11:00+10св1193100 0.9 999141
14:00+11ссв1296100 1.7 1000193
17:00+9ссз4794100 2.6 1001569
20:00+8сз3794100 1.6 1003507
27 июля, вт
вт2723:00+7ссз2892100 2.4 1004556
02:00+7ссз2691100 0.1 1004452
05:00+7зсз1190100 0.1 100458
08:00+9ссз0177100 0.0 1002366
11:00+13ссз125831 0.0 1001980
14:00+12с3369100 0.1 1000186
17:00+12с4375100 0.3 1002584
20:00+9с3394100 0.1 1004223
28 июля, ср
ср2823:00+8с2395100 0.3 1005116
02:00+7с119561 0.0 100614
05:00+6всв119436 0.0 100710
08:00+9в127439 0.0 1006464
11:00+12вюв555548 0.0 10061319
14:00+14юв764678 0.0 10051638
17:00+12ююв7752100 0.1 10051378
20:00+9всв3681100 2.4 1007318
29 июля, чт
чт2923:00+6св2489100 5.1 1009195
02:00+5всв2392100 1.9 1011296
05:00+4св1593100 4.3 1012684
08:00+3св2497100 3.0 1013603
11:00+2св2297100 5.8 1015324
14:00+3всв1396100 2.8 1014408
17:00+3в1397100 5.9 1014442
20:00+3в1298100 2.5 1015420
30 июля, пт
пт3023:00+2всв1199100 5.6 1015269
02:00+2св1199100 1.7 1015305
05:00+2св11100100 3.4 1015290
08:00+2ссв11100100 1.1 1015271
11:00+2с2299100 1.8 1014336
14:00+3ссв2298100 0.3 1014474
17:00+4ссв2393100 0.4 1013409
20:00+4ссз2391100 0.0 1012278